星链-36821(STARLINK-36821)

导读

STARLINK-36821是美国(US)于2026年2月21日发射的星链卫星,归属SpaceX星链星座计划。星链项目旨在构建全球卫星互联网覆盖网络,为偏远地区等提供高速网络服务,该卫星的发射进一步扩充了星链星座的规模,推进其全球组网部署进程。

基本信息
目录编号:
67880
目录名称:
STARLINK-36821
国际标识:
2026-035B
轨道中心:
EARTH
卫星名称:
星链-36821
卫星全名:
星链-36821(STARLINK-36821)
卫星状态:
在轨 (已飞行196 天)
发射日期:
2026-02-21 UTC
国别 :
美国 (US)
星等 :
--
轨道信息
数据来源 国际轨道数据
星历时间: 2026-09-05T14:22:15+0800
6小时前
查看轨道信息
半长轴: 6843.682km
偏心率: 0.0001433
轨道倾角: 97.283°
近地点辐角 101.815°
升交点赤经 180.258°
平近点角 258.326°
近地点: 464.564km
远地点: 466.526km
周期: 93.906分钟
每日圈数: 15.334444
详细信息
固有亮度:
5
最大亮度:
2.5
卫星平台:
Starlink V1.0
覆盖范围:
全球
运营商:
太空探索技术公司
运营商所在国:
美国
制造商(研发单位):
太空探索技术公司
制造商所在国:
美国
使用方式:
暂无
卫星简介
Starlink 计划是 SpaceX 推出的全球卫星互联网项目,通过发射低轨道卫星,为全球尤其是偏远地区提供高速、低延迟的互联网服务。自 2019 年起,Starlink 已部署数千颗卫星,旨在缩小全球数字鸿沟,推动互联网普及。该项目还为军事、航空等行业提供通信支持,带来广泛经济效益。
2D轨道图
3D轨道图
轨道高度分析图
轨道倾角分析图
轨道综合分析图
查看轨道综合分析图
交会数据列表
事件ID 空间交会对象 最接近时刻(TCA) 交会距离 交会风险概率(CRP) 交会风险指数(CRI) 操作
CDM_260906-133205-212206-788021
2026-09-06T
13:32:17+0000
2.733 km
极远距离
1.493429E-6 低风险 0.38
CDM_260907-135405-299106-788021
2026-09-07T
13:54:31+0000
2.861 km
极远距离
1.418578E-6 低风险 0.38